Time,TemperatureF,DewpointF,PressureIn,WindDirection,WindDirectionDegrees,WindSpeedMPH,WindSpeedGustMPH,Humidity,HourlyPrecipIn,Conditions,Clouds,dailyrainin,SoftwareType,DateUTC
2013-05-20 00:00:00,60.7,60.4,29.81,ENE,60,0.0,0.0,99,0.00,,,1.68,Wunderground v.1.15,2013-05-20 04:00:00,
2013-05-20 00:05:00,60.7,60.4,29.81,ENE,60,0.0,0.0,99,0.00,,,0.00,Wunderground v.1.15,2013-05-20 04:05:00,
2013-05-20 00:10:00,60.8,60.5,29.81,ENE,60,0.0,0.0,99,0.00,,,0.00,Wunderground v.1.15,2013-05-20 04:10:00,
2013-05-20 00:15:00,60.8,60.5,29.81,ENE,60,0.0,0.0,99,0.00,,,0.00,Wunderground v.1.15,2013-05-20 04:15:00,
2013-05-20 00:25:00,60.5,60.2,29.82,ENE,60,0.0,0.0,99,0.00,,,0.00,Wunderground v.1.15,2013-05-20 04:25:00,
2013-05-20 00:30:00,60.2,59.9,29.82,ENE,60,0.0,0.0,99,0.00,,,0.00,Wunderground v.1.15,2013-05-20 04:30:00,
2013-05-20 00:35:00,60.3,60.0,29.82,ENE,60,0.0,0.0,99,0.00,,,0.00,Wunderground v.1.15,2013-05-20 04:35:00,
2013-05-20 00:45:00,60.0,59.7,29.82,ENE,60,0.0,0.0,99,0.00,,,0.00,Wunderground v.1.15,2013-05-20 04:45:00,
2013-05-20 00:50:00,59.9,59.6,29.82,ENE,60,0.0,0.0,99,0.00,,,0.00,Wunderground v.1.15,2013-05-20 04:50:00,
2013-05-20 00:55:00,59.6,59.3,29.82,ENE,60,0.0,0.0,99,0.00,,,0.00,Wunderground v.1.15,2013-05-20 04:55:00,
2013-05-20 01:00:00,59.8,59.5,29.82,ENE,63,1.0,3.0,99,0.00,,,0.00,Wunderground v.1.15,2013-05-20 05:00:00,
2013-05-20 01:05:00,59.4,59.1,29.83,ENE,64,1.0,3.0,99,0.00,,,0.00,Wunderground v.1.15,2013-05-20 05:05:00,
2013-05-20 01:15:00,59.6,59.3,29.83,ENE,64,0.0,1.0,99,0.00,,,0.00,Wunderground v.1.15,2013-05-20 05:15:00,
2013-05-20 01:25:00,59.7,59.4,29.83,ENE,64,0.0,0.0,99,0.00,,,0.00,Wunderground v.1.15,2013-05-20 05:25:00,
2013-05-20 01:30:00,59.7,59.4,29.82,ENE,64,0.0,0.0,99,0.00,,,0.00,Wunderground v.1.15,2013-05-20 05:30:00,
2013-05-20 01:40:00,59.6,59.3,29.82,ENE,63,0.0,0.0,99,0.00,,,0.00,Wunderground v.1.15,2013-05-20 05:40:00,
2013-05-20 01:50:00,59.0,58.7,29.82,ENE,64,0.0,0.0,99,0.00,,,0.00,Wunderground v.1.15,2013-05-20 05:50:00,
2013-05-20 01:55:00,59.0,58.7,29.82,ENE,64,0.0,0.0,99,0.00,,,0.00,Wunderground v.1.15,2013-05-20 05:55:00,
2013-05-20 02:00:00,59.0,58.7,29.82,ENE,63,0.0,0.0,99,0.00,,,0.00,Wunderground v.1.15,2013-05-20 06:00:00,
2013-05-20 02:05:00,59.0,58.7,29.82,ENE,63,0.0,0.0,99,0.00,,,0.00,Wunderground v.1.15,2013-05-20 06:05:00,
2013-05-20 02:10:00,58.8,58.5,29.82,ENE,63,0.0,0.0,99,0.00,,,0.00,Wunderground v.1.15,2013-05-20 06:10:00,
2013-05-20 02:15:00,59.0,58.7,29.82,ENE,64,0.0,0.0,99,0.00,,,0.00,Wunderground v.1.15,2013-05-20 06:15:00,
2013-05-20 02:25:00,58.3,58.0,29.82,ENE,63,0.0,1.0,99,0.00,,,0.00,Wunderground v.1.15,2013-05-20 06:25:00,
2013-05-20 02:30:00,58.3,58.0,29.82,ENE,63,1.0,1.0,99,0.00,,,0.00,Wunderground v.1.15,2013-05-20 06:30:00,
2013-05-20 02:40:00,58.4,58.1,29.81,ENE,63,1.0,1.0,99,0.00,,,0.00,Wunderground v.1.15,2013-05-20 06:40:00,
2013-05-20 02:45:00,58.4,58.1,29.81,ENE,63,0.0,1.0,99,0.00,,,0.00,Wunderground v.1.15,2013-05-20 06:45:00,
2013-05-20 02:55:00,58.2,57.9,29.81,ENE,63,0.0,0.0,99,0.00,,,0.00,Wunderground v.1.15,2013-05-20 06:55:00,
2013-05-20 03:00:00,58.1,57.8,29.81,ENE,63,0.0,0.0,99,0.00,,,0.00,Wunderground v.1.15,2013-05-20 07:00:00,
2013-05-20 03:10:00,58.3,58.0,29.82,ENE,63,0.0,0.0,99,0.00,,,0.00,Wunderground v.1.15,2013-05-20 07:10:00,
2013-05-20 03:15:00,58.7,58.4,29.82,ENE,63,0.0,0.0,99,0.00,,,0.00,Wunderground v.1.15,2013-05-20 07:15:00,
2013-05-20 03:20:00,58.9,58.6,29.82,ENE,63,0.0,0.0,99,0.00,,,0.00,Wunderground v.1.15,2013-05-20 07:20:00,
2013-05-20 03:25:00,58.9,58.6,29.82,ENE,63,0.0,0.0,99,0.00,,,0.00,Wunderground v.1.15,2013-05-20 07:25:00,
2013-05-20 03:30:00,58.3,58.0,29.82,ENE,63,0.0,0.0,99,0.00,,,0.00,Wunderground v.1.15,2013-05-20 07:30:00,
2013-05-20 03:35:00,58.1,57.8,29.82,ENE,63,0.0,0.0,99,0.00,,,0.00,Wunderground v.1.15,2013-05-20 07:35:00,
2013-05-20 03:45:00,58.1,57.8,29.82,ENE,63,0.0,0.0,99,0.00,,,0.00,Wunderground v.1.15,2013-05-20 07:45:00,
2013-05-20 03:50:00,58.0,57.7,29.82,ENE,63,0.0,0.0,99,0.00,,,0.00,Wunderground v.1.15,2013-05-20 07:50:00,
2013-05-20 03:55:00,58.0,57.7,29.82,ENE,63,0.0,0.0,99,0.00,,,0.00,Wunderground v.1.15,2013-05-20 07:55:00,
2013-05-20 04:00:00,57.7,57.4,29.82,ENE,63,0.0,0.0,99,0.00,,,0.00,Wunderground v.1.15,2013-05-20 08:00:00,
2013-05-20 04:10:00,57.7,57.4,29.81,ENE,63,0.0,2.0,99,0.00,,,0.00,Wunderground v.1.15,2013-05-20 08:10:00,
2013-05-20 04:15:00,57.4,57.1,29.82,ENE,63,1.0,2.0,99,0.00,,,0.00,Wunderground v.1.15,2013-05-20 08:15:00,
2013-05-20 04:25:00,57.4,57.1,29.81,ENE,63,0.0,0.0,99,0.00,,,0.00,Wunderground v.1.15,2013-05-20 08:25:00,
2013-05-20 04:35:00,57.2,56.9,29.81,ENE,63,0.0,0.0,99,0.00,,,0.00,Wunderground v.1.15,2013-05-20 08:35:00,
2013-05-20 04:40:00,56.9,56.6,29.81,ENE,63,0.0,0.0,99,0.00,,,0.00,Wunderground v.1.15,2013-05-20 08:40:00,
2013-05-20 04:45:00,56.9,56.6,29.81,ENE,63,0.0,0.0,99,0.00,,,0.00,Wunderground v.1.15,2013-05-20 08:45:00,
2013-05-20 04:50:00,57.0,56.7,29.81,ENE,63,0.0,0.0,99,0.00,,,0.00,Wunderground v.1.15,2013-05-20 08:50:00,
2013-05-20 04:55:00,56.9,56.6,29.81,ENE,63,0.0,2.0,99,0.00,,,0.00,Wunderground v.1.15,2013-05-20 08:55:00,
2013-05-20 05:05:00,56.7,56.4,29.81,ENE,63,1.0,1.0,99,0.00,,,0.00,Wunderground v.1.15,2013-05-20 09:05:00,
2013-05-20 05:10:00,56.7,56.4,29.81,ENE,63,1.0,1.0,99,0.00,,,0.00,Wunderground v.1.15,2013-05-20 09:10:00,
2013-05-20 05:15:00,57.0,56.7,29.81,ENE,63,0.0,1.0,99,0.00,,,0.00,Wunderground v.1.15,2013-05-20 09:15:00,
2013-05-20 05:20:00,57.1,56.8,29.81,ENE,63,0.0,0.0,99,0.00,,,0.00,Wunderground v.1.15,2013-05-20 09:20:00,
2013-05-20 05:30:00,57.0,56.7,29.81,ENE,63,0.0,2.0,99,0.00,,,0.00,Wunderground v.1.15,2013-05-20 09:30:00,
2013-05-20 05:35:00,57.1,56.8,29.81,ENE,63,0.0,2.0,99,0.00,,,0.00,Wunderground v.1.15,2013-05-20 09:35:00,
2013-05-20 05:40:00,57.7,57.4,29.81,ENE,63,0.0,0.0,99,0.00,,,0.00,Wunderground v.1.15,2013-05-20 09:40:00,
2013-05-20 05:50:00,56.3,56.0,29.81,ENE,63,0.0,0.0,99,0.00,,,0.00,Wunderground v.1.15,2013-05-20 09:50:00,
2013-05-20 05:55:00,56.0,55.7,29.81,ENE,63,0.0,0.0,99,0.00,,,0.00,Wunderground v.1.15,2013-05-20 09:55:00,
2013-05-20 06:00:00,56.8,56.5,29.81,ENE,63,0.0,0.0,99,0.00,,,0.00,Wunderground v.1.15,2013-05-20 10:00:00,
2013-05-20 06:10:00,57.0,56.7,29.82,ENE,63,0.0,0.0,99,0.00,,,0.00,Wunderground v.1.15,2013-05-20 10:10:00,
2013-05-20 06:15:00,56.7,56.4,29.82,ENE,63,0.0,0.0,99,0.00,,,0.00,Wunderground v.1.15,2013-05-20 10:15:00,
2013-05-20 06:25:00,55.2,54.9,29.83,ENE,63,0.0,1.0,99,0.00,,,0.00,Wunderground v.1.15,2013-05-20 10:25:00,
2013-05-20 06:30:00,55.6,55.3,29.83,ENE,63,0.0,0.0,99,0.00,,,0.00,Wunderground v.1.15,2013-05-20 10:30:00,
2013-05-20 06:40:00,56.1,55.8,29.84,ENE,63,0.0,0.0,99,0.00,,,0.00,Wunderground v.1.15,2013-05-20 10:40:00,
2013-05-20 06:45:00,56.1,55.8,29.84,ENE,63,0.0,0.0,99,0.00,,,0.00,Wunderground v.1.15,2013-05-20 10:45:00,
2013-05-20 06:55:00,55.3,55.0,29.84,ENE,63,0.0,0.0,99,0.00,,,0.00,Wunderground v.1.15,2013-05-20 10:55:00,
2013-05-20 07:00:00,55.6,55.3,29.84,ENE,63,0.0,0.0,99,0.00,,,0.00,Wunderground v.1.15,2013-05-20 11:00:00,
2013-05-20 07:10:00,56.6,56.3,29.84,ENE,63,0.0,0.0,99,0.00,,,0.00,Wunderground v.1.15,2013-05-20 11:10:00,
2013-05-20 07:15:00,56.9,56.6,29.84,ENE,63,0.0,0.0,99,0.00,,,0.00,Wunderground v.1.15,2013-05-20 11:15:00,
2013-05-20 07:25:00,56.6,56.3,29.84,ENE,63,0.0,1.0,99,0.00,,,0.00,Wunderground v.1.15,2013-05-20 11:25:00,
2013-05-20 07:35:00,57.6,57.3,29.84,ENE,63,0.0,0.0,99,0.00,,,0.00,Wunderground v.1.15,2013-05-20 11:35:00,
2013-05-20 07:45:00,58.5,58.2,29.84,ENE,63,0.0,0.0,99,0.00,,,0.00,Wunderground v.1.15,2013-05-20 11:45:00,
2013-05-20 07:55:00,59.4,59.1,29.84,ENE,63,0.0,0.0,99,0.00,,,0.00,Wunderground v.1.15,2013-05-20 11:55:00,
2013-05-20 08:00:00,59.9,59.6,29.83,ENE,63,0.0,1.0,99,0.00,,,0.00,Wunderground v.1.15,2013-05-20 12:00:00,
2013-05-20 08:05:00,60.1,59.8,29.84,ENE,63,1.0,1.0,99,0.00,,,0.00,Wunderground v.1.15,2013-05-20 12:05:00,
2013-05-20 08:15:00,60.4,60.1,29.84,ENE,63,1.0,3.0,99,0.00,,,0.00,Wunderground v.1.15,2013-05-20 12:15:00,
2013-05-20 08:20:00,60.5,60.2,29.84,ENE,63,2.0,3.0,99,0.00,,,0.00,Wunderground v.1.15,2013-05-20 12:20:00,
2013-05-20 08:25:00,60.9,60.9,29.84,ENE,63,2.0,3.0,100,0.00,,,0.00,Wunderground v.1.15,2013-05-20 12:25:00,
2013-05-20 08:31:00,61.3,61.0,29.84,ENE,63,3.0,3.0,99,0.00,,,0.00,Wunderground v.1.15,2013-05-20 12:31:00,
2013-05-20 08:40:00,62.1,62.1,29.84,ENE,59,2.0,3.0,100,0.00,,,0.00,Wunderground v.1.15,2013-05-20 12:40:00,
2013-05-20 08:50:00,63.0,63.0,29.84,ENE,59,2.0,2.0,100,0.00,,,0.00,Wunderground v.1.15,2013-05-20 12:50:00,
2013-05-20 08:55:00,63.5,63.2,29.84,ENE,59,2.0,3.0,99,0.00,,,0.00,Wunderground v.1.15,2013-05-20 12:55:00,
2013-05-20 09:05:00,64.8,64.5,29.84,ENE,58,1.0,2.0,99,0.00,,,0.00,Wunderground v.1.15,2013-05-20 13:05:00,
2013-05-20 09:10:00,65.4,64.8,29.84,ENE,57,1.0,3.0,98,0.00,,,0.00,Wunderground v.1.15,2013-05-20 13:10:00,
2013-05-20 09:15:00,65.9,64.7,29.84,NE,56,2.0,3.0,96,0.00,,,0.00,Wunderground v.1.15,2013-05-20 13:15:00,
2013-05-20 09:25:00,67.0,64.9,29.84,NE,56,0.0,1.0,93,0.00,,,0.00,Wunderground v.1.15,2013-05-20 13:25:00,
2013-05-20 09:30:00,67.4,65.0,29.84,NE,56,0.0,0.0,92,0.00,,,0.00,Wunderground v.1.15,2013-05-20 13:30:00,
2013-05-20 09:35:00,67.9,66.1,29.84,NE,56,0.0,0.0,94,0.00,,,0.00,Wunderground v.1.15,2013-05-20 13:35:00,
2013-05-20 09:40:00,68.0,66.2,29.84,ENE,57,0.0,0.0,94,0.00,,,0.00,Wunderground v.1.15,2013-05-20 13:40:00,
2013-05-20 09:45:00,68.2,66.1,29.84,ENE,57,0.0,0.0,93,0.00,,,0.00,Wunderground v.1.15,2013-05-20 13:45:00,
2013-05-20 09:55:00,68.7,66.3,29.84,East,91,1.0,2.0,92,0.00,,,0.00,Wunderground v.1.15,2013-05-20 13:55:00,
2013-05-20 10:00:00,69.1,66.7,29.84,SSE,161,2.0,2.0,92,0.00,,,0.00,Wunderground v.1.15,2013-05-20 14:00:00,
2013-05-20 10:05:00,69.4,67.3,29.85,SSE,161,1.0,2.0,93,0.00,,,0.00,Wunderground v.1.15,2013-05-20 14:05:00,
2013-05-20 10:15:00,69.7,67.3,29.85,SSW,212,2.0,3.0,92,0.00,,,0.00,Wunderground v.1.15,2013-05-20 14:15:00,
2013-05-20 10:25:00,70.1,65.7,29.85,SW,214,1.0,2.0,86,0.00,,,0.00,Wunderground v.1.15,2013-05-20 14:25:00,
2013-05-20 10:35:00,70.4,66.3,29.85,SW,216,2.0,4.0,87,0.00,,,0.00,Wunderground v.1.15,2013-05-20 14:35:00,
2013-05-20 10:40:00,70.6,66.9,29.85,SW,222,2.0,2.0,88,0.00,,,0.00,Wunderground v.1.15,2013-05-20 14:40:00,
2013-05-20 10:45:00,71.0,67.9,29.85,SW,230,2.0,2.0,90,0.00,,,0.00,Wunderground v.1.15,2013-05-20 14:45:00,
2013-05-20 10:55:00,71.9,67.5,29.85,SW,228,2.0,2.0,86,0.00,,,0.00,Wunderground v.1.15,2013-05-20 14:55:00,
2013-05-20 11:00:00,71.8,66.7,29.85,SW,224,2.0,4.0,84,0.00,,,0.00,Wunderground v.1.15,2013-05-20 15:00:00,
2013-05-20 11:05:00,71.8,67.0,29.85,SW,222,3.0,4.0,85,0.00,,,0.00,Wunderground v.1.15,2013-05-20 15:05:00,
2013-05-20 11:10:00,72.1,66.6,29.85,SW,222,3.0,3.0,83,0.00,,,0.00,Wunderground v.1.15,2013-05-20 15:10:00,
2013-05-20 11:20:00,72.8,67.3,29.85,WSW,241,2.0,6.0,83,0.00,,,0.00,Wunderground v.1.15,2013-05-20 15:20:00,
2013-05-20 11:25:00,73.6,68.1,29.85,WSW,246,3.0,6.0,83,0.00,,,0.00,Wunderground v.1.15,2013-05-20 15:25:00,
2013-05-20 11:30:00,73.5,66.9,29.85,WSW,243,3.0,3.0,80,0.00,,,0.00,Wunderground v.1.15,2013-05-20 15:30:00,
2013-05-20 11:40:00,73.6,66.7,29.84,SSW,205,1.0,5.0,79,0.00,,,0.00,Wunderground v.1.15,2013-05-20 15:40:00,
2013-05-20 11:50:00,74.1,67.2,29.84,SW,214,3.0,6.0,79,0.00,,,0.00,Wunderground v.1.15,2013-05-20 15:50:00,
2013-05-20 11:55:00,74.2,66.5,29.84,SW,214,2.0,6.0,77,0.00,,,0.00,Wunderground v.1.15,2013-05-20 15:55:00,
2013-05-20 12:00:00,74.2,66.5,29.84,SW,214,1.0,1.0,77,0.00,,,0.00,Wunderground v.1.15,2013-05-20 16:00:00,
2013-05-20 12:10:00,75.1,69.2,29.84,SW,214,2.0,2.0,82,0.00,,,0.00,Wunderground v.1.15,2013-05-20 16:10:00,
2013-05-20 12:15:00,75.2,69.7,29.83,SW,222,2.0,4.0,83,0.00,,,0.00,Wunderground v.1.15,2013-05-20 16:15:00,
2013-05-20 12:25:00,75.6,68.6,29.83,SW,224,2.0,4.0,79,0.00,,,0.00,Wunderground v.1.15,2013-05-20 16:25:00,
2013-05-20 12:30:00,75.8,68.4,29.83,SW,228,2.0,5.0,78,0.00,,,0.00,Wunderground v.1.15,2013-05-20 16:30:00,
2013-05-20 12:35:00,76.0,69.4,29.83,WSW,239,2.0,6.0,80,0.00,,,0.00,Wunderground v.1.15,2013-05-20 16:35:00,
2013-05-20 12:40:00,76.6,70.3,29.83,WSW,252,2.0,2.0,81,0.00,,,0.00,Wunderground v.1.15,2013-05-20 16:40:00,
2013-05-20 12:45:00,76.6,71.0,29.83,WSW,252,2.0,2.0,83,0.00,,,0.00,Wunderground v.1.15,2013-05-20 16:45:00,
2013-05-20 12:55:00,76.8,70.2,29.83,SW,224,4.0,4.0,80,0.00,,,0.00,Wunderground v.1.15,2013-05-20 16:55:00,
2013-05-20 13:00:00,77.3,71.4,29.82,SW,224,3.0,4.0,82,0.00,,,0.00,Wunderground v.1.15,2013-05-20 17:00:00,
2013-05-20 13:05:00,77.4,69.6,29.82,SSW,205,4.0,4.0,77,0.00,,,0.00,Wunderground v.1.15,2013-05-20 17:05:00,
2013-05-20 13:10:00,77.6,72.4,29.82,South,186,4.0,7.0,84,0.00,,,0.00,Wunderground v.1.15,2013-05-20 17:10:00,
2013-05-20 13:15:00,77.9,71.6,29.81,SW,219,6.0,7.0,81,0.00,,,0.00,Wunderground v.1.15,2013-05-20 17:15:00,
2013-05-20 13:25:00,78.0,71.7,29.82,SW,220,5.0,7.0,81,0.00,,,0.00,Wunderground v.1.15,2013-05-20 17:25:00,
2013-05-20 13:30:00,78.6,72.3,29.81,South,189,4.0,4.0,81,0.00,,,0.00,Wunderground v.1.15,2013-05-20 17:30:00,
2013-05-20 13:35:00,78.7,72.0,29.81,WSW,240,5.0,7.0,80,0.00,,,0.00,Wunderground v.1.15,2013-05-20 17:35:00,
2013-05-20 13:40:00,78.9,71.1,29.81,SW,226,4.0,6.0,77,0.00,,,0.00,Wunderground v.1.15,2013-05-20 17:40:00,
2013-05-20 13:50:00,78.9,72.2,29.80,West,280,4.0,6.0,80,0.00,,,0.00,Wunderground v.1.15,2013-05-20 17:50:00,
2013-05-20 13:55:00,79.3,71.8,29.80,SW,236,5.0,6.0,78,0.00,,,0.00,Wunderground v.1.15,2013-05-20 17:55:00,
2013-05-20 14:00:00,79.1,73.5,29.80,SW,214,4.0,4.0,83,0.00,,,0.00,Wunderground v.1.15,2013-05-20 18:00:00,
2013-05-20 14:10:00,79.8,71.6,29.80,SW,232,4.0,4.0,76,0.00,,,0.00,Wunderground v.1.15,2013-05-20 18:10:00,
2013-05-20 14:15:00,80.3,73.9,29.80,SW,221,5.0,5.0,81,0.00,,,0.00,Wunderground v.1.15,2013-05-20 18:15:00,
2013-05-20 14:25:00,80.8,71.7,29.79,SW,234,7.0,10.0,74,0.00,,,0.00,Wunderground v.1.15,2013-05-20 18:25:00,
2013-05-20 14:35:00,81.1,72.0,29.79,SW,216,6.0,11.0,74,0.00,,,0.00,Wunderground v.1.15,2013-05-20 18:35:00,
2013-05-20 14:40:00,81.3,73.0,29.79,SW,226,7.0,7.0,76,0.00,,,0.00,Wunderground v.1.15,2013-05-20 18:40:00,
2013-05-20 14:45:00,80.4,72.9,29.79,SW,231,5.0,7.0,78,0.00,,,0.00,Wunderground v.1.15,2013-05-20 18:45:00,
2013-05-20 14:55:00,80.7,73.2,29.79,WNW,282,4.0,4.0,78,0.00,,,0.00,Wunderground v.1.15,2013-05-20 18:55:00,
2013-05-20 15:01:00,81.6,74.1,29.78,SW,218,5.0,9.0,78,0.00,,,0.00,Wunderground v.1.15,2013-05-20 19:01:00,
2013-05-20 15:10:00,82.0,74.5,29.78,SSW,208,5.0,10.0,78,0.00,,,0.00,Wunderground v.1.15,2013-05-20 19:10:00,
2013-05-20 15:15:00,82.2,72.7,29.78,SSW,210,5.0,6.0,73,0.00,,,0.00,Wunderground v.1.15,2013-05-20 19:15:00,
2013-05-20 15:25:00,81.3,73.8,29.78,SW,230,8.0,10.0,78,0.00,,,0.00,Wunderground v.1.15,2013-05-20 19:25:00,
2013-05-20 15:30:00,81.0,72.3,29.78,SW,228,9.0,10.0,75,0.00,,,0.00,Wunderground v.1.15,2013-05-20 19:30:00,
2013-05-20 15:40:00,81.1,72.4,29.77,WSW,238,8.0,8.0,75,0.00,,,0.00,Wunderground v.1.15,2013-05-20 19:40:00,
2013-05-20 15:45:00,79.7,71.8,29.77,SSW,211,7.0,7.0,77,0.00,,,0.00,Wunderground v.1.15,2013-05-20 19:45:00,
2013-05-20 15:50:00,78.6,72.6,29.77,West,268,5.0,7.0,82,0.00,,,0.01,Wunderground v.1.15,2013-05-20 19:50:00,
2013-05-20 16:00:00,77.3,73.1,29.77,South,180,4.0,4.0,87,0.07,,,0.02,Wunderground v.1.15,2013-05-20 20:00:00,
2013-05-20 16:10:00,75.8,73.6,29.77,South,183,1.0,1.0,93,0.05,,,0.02,Wunderground v.1.15,2013-05-20 20:10:00,
2013-05-20 16:15:00,77.0,74.5,29.77,South,186,1.0,1.0,92,0.00,,,0.02,Wunderground v.1.15,2013-05-20 20:15:00,
2013-05-20 16:20:00,77.5,74.0,29.77,SSW,212,3.0,3.0,89,0.00,,,0.02,Wunderground v.1.15,2013-05-20 20:20:00,
2013-05-20 16:25:00,78.1,73.6,29.77,SSW,212,5.0,6.0,86,0.00,,,0.02,Wunderground v.1.15,2013-05-20 20:25:00,
2013-05-20 16:30:00,77.9,74.1,29.77,South,189,4.0,4.0,88,0.00,,,0.02,Wunderground v.1.15,2013-05-20 20:30:00,
2013-05-20 16:40:00,78.3,73.8,29.76,SSW,213,6.0,6.0,86,0.00,,,0.02,Wunderground v.1.15,2013-05-20 20:40:00,
2013-05-20 16:45:00,78.9,72.6,29.76,SSW,212,8.0,9.0,81,0.00,,,0.02,Wunderground v.1.15,2013-05-20 20:45:00,
2013-05-20 16:50:00,78.9,73.3,29.76,SW,225,9.0,11.0,83,0.00,,,0.02,Wunderground v.1.15,2013-05-20 20:50:00,
2013-05-20 16:55:00,80.5,74.5,29.76,SSW,199,8.0,11.0,82,0.00,,,0.02,Wunderground v.1.15,2013-05-20 20:55:00,
2013-05-20 17:05:00,80.7,73.6,29.75,SW,230,8.0,8.0,79,0.00,,,0.02,Wunderground v.1.15,2013-05-20 21:05:00,
2013-05-20 17:10:00,80.7,73.2,29.75,SSW,205,7.0,7.0,78,0.00,,,0.02,Wunderground v.1.15,2013-05-20 21:10:00,
2013-05-20 17:15:00,80.4,73.3,29.76,SW,222,7.0,7.0,79,0.00,,,0.02,Wunderground v.1.15,2013-05-20 21:15:00,
2013-05-20 17:26:00,81.1,73.2,29.75,SSW,200,7.0,12.0,77,0.00,,,0.02,Wunderground v.1.15,2013-05-20 21:26:00,
2013-05-20 17:35:00,81.1,72.4,29.76,South,180,7.0,9.0,75,0.00,,,0.02,Wunderground v.1.15,2013-05-20 21:35:00,
2013-05-20 17:40:00,81.3,71.8,29.76,SW,214,7.0,7.0,73,0.00,,,0.02,Wunderground v.1.15,2013-05-20 21:40:00,
2013-05-20 17:45:00,81.5,72.4,29.76,South,176,5.0,7.0,74,0.00,,,0.02,Wunderground v.1.15,2013-05-20 21:45:00,
2013-05-20 17:55:00,79.6,71.0,29.76,South,183,4.0,4.0,75,0.00,,,0.02,Wunderground v.1.15,2013-05-20 21:55:00,
2013-05-20 18:00:00,78.5,71.8,29.77,NNE,23,3.0,7.0,80,0.00,,,0.02,Wunderground v.1.15,2013-05-20 22:00:00,
2013-05-20 18:10:00,75.6,71.1,29.78,NNE,29,6.0,8.0,86,0.00,,,0.02,Wunderground v.1.15,2013-05-20 22:10:00,
2013-05-20 18:15:00,74.5,70.4,29.78,ENE,78,6.0,8.0,87,0.00,,,0.02,Wunderground v.1.15,2013-05-20 22:15:00,
2013-05-20 18:25:00,72.6,69.8,29.78,ENE,68,3.0,5.0,91,0.33,,,0.13,Wunderground v.1.15,2013-05-20 22:25:00,
2013-05-20 18:30:00,71.7,69.3,29.79,North,360,4.0,5.0,92,0.59,,,0.18,Wunderground v.1.15,2013-05-20 22:30:00,
2013-05-20 18:35:00,71.3,69.5,29.80,North,360,4.0,6.0,94,0.46,,,0.21,Wunderground v.1.15,2013-05-20 22:35:00,
2013-05-20 18:40:00,70.9,69.1,29.79,NNW,336,5.0,6.0,94,0.75,,,0.28,Wunderground v.1.15,2013-05-20 22:40:00,
2013-05-20 18:45:00,70.5,68.4,29.80,NNW,334,3.0,6.0,93,0.47,,,0.34,Wunderground v.1.15,2013-05-20 22:45:00,
2013-05-20 18:55:00,70.1,68.6,29.78,NNW,334,0.0,2.0,95,0.49,,,0.49,Wunderground v.1.15,2013-05-20 22:55:00,
2013-05-20 19:00:00,70.2,69.0,29.77,NNW,334,0.0,0.0,96,0.23,,,0.51,Wunderground v.1.15,2013-05-20 23:00:00,
2013-05-20 19:10:00,70.3,69.4,29.77,NNW,334,0.0,0.0,97,0.07,,,0.52,Wunderground v.1.15,2013-05-20 23:10:00,
2013-05-20 19:15:00,70.3,69.4,29.77,NNW,334,0.0,0.0,97,0.07,,,0.52,Wunderground v.1.15,2013-05-20 23:15:00,
2013-05-20 19:25:00,70.4,69.5,29.78,NNW,334,0.0,2.0,97,0.06,,,0.53,Wunderground v.1.15,2013-05-20 23:25:00,
2013-05-20 19:30:00,70.6,69.7,29.78,NNW,334,0.0,0.0,97,0.04,,,0.53,Wunderground v.1.15,2013-05-20 23:30:00,
2013-05-20 19:40:00,70.7,69.8,29.78,NNW,334,0.0,0.0,97,0.00,,,0.53,Wunderground v.1.15,2013-05-20 23:40:00,
2013-05-20 19:45:00,70.5,69.3,29.77,NNW,334,0.0,0.0,96,0.00,,,0.53,Wunderground v.1.15,2013-05-20 23:45:00,
2013-05-20 19:55:00,70.3,69.1,29.77,NNW,334,0.0,2.0,96,0.00,,,0.53,Wunderground v.1.15,2013-05-20 23:55:00,
2013-05-20 20:00:00,70.4,69.5,29.77,NNW,334,0.0,0.0,97,0.00,,,0.53,Wunderground v.1.15,2013-05-21 00:00:00,
2013-05-20 20:05:00,70.1,69.2,29.76,NNW,334,0.0,1.0,97,0.00,,,0.53,Wunderground v.1.15,2013-05-21 00:05:00,
2013-05-20 20:10:00,69.5,68.3,29.77,NNW,334,1.0,2.0,96,0.00,,,0.53,Wunderground v.1.15,2013-05-21 00:10:00,
2013-05-20 20:15:00,69.1,68.2,29.77,NNW,341,2.0,2.0,97,0.00,,,0.53,Wunderground v.1.15,2013-05-21 00:15:00,
2013-05-20 20:25:00,68.9,68.0,29.77,NNW,341,0.0,2.0,97,0.00,,,0.53,Wunderground v.1.15,2013-05-21 00:25:00,
2013-05-20 20:30:00,68.8,67.9,29.77,NNW,341,1.0,1.0,97,0.00,,,0.53,Wunderground v.1.15,2013-05-21 00:30:00,
2013-05-20 20:35:00,69.0,68.1,29.77,NNW,341,1.0,1.0,97,0.00,,,0.53,Wunderground v.1.15,2013-05-21 00:35:00,
2013-05-20 20:40:00,68.9,68.0,29.77,NNW,341,0.0,0.0,97,0.00,,,0.53,Wunderground v.1.15,2013-05-21 00:40:00,
2013-05-20 20:50:00,68.8,67.9,29.76,NNW,341,0.0,1.0,97,0.00,,,0.53,Wunderground v.1.15,2013-05-21 00:50:00,
2013-05-20 20:55:00,68.8,67.9,29.76,NNW,340,0.0,1.0,97,0.00,,,0.53,Wunderground v.1.15,2013-05-21 00:55:00,
2013-05-20 21:00:00,68.8,67.9,29.77,NNW,340,0.0,1.0,97,0.00,,,0.53,Wunderground v.1.15,2013-05-21 01:00:00,
2013-05-20 21:05:00,68.5,67.6,29.76,NNW,340,0.0,1.0,97,0.00,,,0.53,Wunderground v.1.15,2013-05-21 01:05:00,
2013-05-20 21:10:00,68.4,67.5,29.76,NNW,340,1.0,1.0,97,0.00,,,0.53,Wunderground v.1.15,2013-05-21 01:10:00,
2013-05-20 21:20:00,68.4,67.5,29.76,NNW,340,0.0,0.0,97,0.00,,,0.53,Wunderground v.1.15,2013-05-21 01:20:00,
2013-05-20 21:25:00,68.4,67.5,29.76,NNW,340,0.0,0.0,97,0.00,,,0.53,Wunderground v.1.15,2013-05-21 01:25:00,
2013-05-20 21:30:00,68.2,67.3,29.76,NNW,340,0.0,0.0,97,0.00,,,0.53,Wunderground v.1.15,2013-05-21 01:30:00,
2013-05-20 21:40:00,67.5,66.6,29.77,NNW,340,0.0,0.0,97,0.00,,,0.53,Wunderground v.1.15,2013-05-21 01:40:00,
2013-05-20 21:45:00,67.4,66.5,29.77,North,353,1.0,3.0,97,0.00,,,0.53,Wunderground v.1.15,2013-05-21 01:45:00,
2013-05-20 21:55:00,67.3,66.7,29.78,North,353,1.0,1.0,98,0.00,,,0.53,Wunderground v.1.15,2013-05-21 01:55:00,
2013-05-20 22:00:00,67.2,66.6,29.78,North,353,0.0,0.0,98,0.00,,,0.53,Wunderground v.1.15,2013-05-21 02:00:00,
2013-05-20 22:10:00,67.5,66.9,29.78,North,353,0.0,0.0,98,0.00,,,0.53,Wunderground v.1.15,2013-05-21 02:10:00,
2013-05-20 22:15:00,67.4,66.8,29.78,North,353,0.0,0.0,98,0.00,,,0.53,Wunderground v.1.15,2013-05-21 02:15:00,
2013-05-20 22:25:00,67.4,66.8,29.78,North,353,0.0,1.0,98,0.00,,,0.53,Wunderground v.1.15,2013-05-21 02:25:00,
2013-05-20 22:30:00,67.4,66.8,29.78,North,353,0.0,0.0,98,0.00,,,0.53,Wunderground v.1.15,2013-05-21 02:30:00,
2013-05-20 22:35:00,67.3,66.7,29.78,North,353,0.0,0.0,98,0.00,,,0.53,Wunderground v.1.15,2013-05-21 02:35:00,
2013-05-20 22:40:00,67.1,66.5,29.78,North,353,0.0,0.0,98,0.00,,,0.53,Wunderground v.1.15,2013-05-21 02:40:00,
2013-05-20 22:45:00,67.0,66.4,29.79,North,353,0.0,0.0,98,0.00,,,0.53,Wunderground v.1.15,2013-05-21 02:45:00,
2013-05-20 22:55:00,66.8,66.2,29.79,North,353,0.0,0.0,98,0.00,,,0.53,Wunderground v.1.15,2013-05-21 02:55:00,
2013-05-20 23:00:00,66.6,66.0,29.78,North,353,0.0,0.0,98,0.00,,,0.53,Wunderground v.1.15,2013-05-21 03:00:00,
2013-05-20 23:05:00,66.7,66.4,29.78,North,353,0.0,0.0,99,0.00,,,0.53,Wunderground v.1.15,2013-05-21 03:05:00,
2013-05-20 23:15:00,66.6,66.0,29.78,North,353,0.0,0.0,98,0.00,,,0.53,Wunderground v.1.15,2013-05-21 03:15:00,
2013-05-20 23:20:00,66.5,65.9,29.78,North,353,0.0,0.0,98,0.00,,,0.53,Wunderground v.1.15,2013-05-21 03:20:00,
2013-05-20 23:25:00,66.6,66.0,29.78,North,353,0.0,0.0,98,0.00,,,0.53,Wunderground v.1.15,2013-05-21 03:25:00,
2013-05-20 23:30:00,66.9,66.6,29.78,North,353,0.0,0.0,99,0.00,,,0.53,Wunderground v.1.15,2013-05-21 03:30:00,
2013-05-20 23:40:00,67.1,66.8,29.78,North,353,0.0,0.0,99,0.00,,,0.53,Wunderground v.1.15,2013-05-21 03:40:00,
2013-05-20 23:45:00,67.6,67.3,29.77,North,353,0.0,0.0,99,0.00,,,0.53,Wunderground v.1.15,2013-05-21 03:45:00,
2013-05-20 23:55:00,67.3,67.0,29.78,North,353,0.0,0.0,99,0.00,,,0.53,Wunderground v.1.15,2013-05-21 03:55:00,